Bobo Dioulasso Airport

Jump to: basic info | weather | frequencies | runways | comments

Related pages: nearby airports | nearby navaids | notams | map

Basic information (top)

Codes: BOY DFOO
Location: lon 11.160100, lat -4.330970, elev 1,511 ft / 461 m msl
Status: medium_airport
Scheduled airline service: yes
Links: Wikipedia Mobile

Weather (top)

Current conditions (rec'd 2014/07/25 12:00Z):

DFOO 251200Z 22010KT 9999 SCT016 SCT026 26/23 Q1015

Airport forecast (rec'd 2014/07/25 12:15Z):

TAF DFOO 251100Z 2512/2612 22010KT 9999 SCT016 PROB30 
      TEMPO 2514/2524 3000 TSRA SCT016 SCT030CB

Frequencies (top)

Verify before use: may be inaccurate or out of date.

A/G: 667.3 MHz (AG VOICE RDO)
TWR: 119.7 MHz (TWR)

Runways (top)

06/24: 10,826 x 148 ft (3,300 x 45 m) — paved — lighted

Latest comments (top)

No comments yet for Bobo Dioulasso Airport

More... (top)

See also NOTAMs and nearby airports and navaids, or visit the Bobo Dioulasso Airport page at the main OurAirports website..